{"data":{"norad_id":68281,"intl_designator":"2026-055V","name":"STARLINK-37134","alt_names":[],"object_type":"PAYLOAD","status":"ACTIVE","operator":null,"country":"US","launch_date":"2026-03-19","launch_site_code":"AFETR","launch_vehicle":null,"mission":null,"orbit_class":"UNKNOWN","rcs_meters":null,"size_class":null,"mass_kg":null,"dimensions":null,"purposes":["comms"],"wikipedia_slug":null,"has_3d_model":false,"image_url":null,"decayed_at":null,"tle_current":{"epoch":"2026-09-20T00:35:03.377760Z","epoch_age_seconds":92541,"freshness":"FRESH","line1":"1 68281U 26055V   26263.02434465  .00010279  00000+0  31481-3 0  9998","line2":"2 68281  53.1572 133.8225 0001589 206.1411 153.9512 15.34413602 29727","mean_motion":15.34413602,"eccentricity":0.0001589,"inclination_deg":53.1572,"raan_deg":133.8225,"arg_perigee_deg":206.1411,"mean_anomaly_deg":153.9512,"bstar":0.00031481,"rev_number":2972,"period_min":93.846926156224,"perigee_km":461.57580940506,"apogee_km":463.74981558547,"semimajor_km":6840.7998124953,"source":"CELESTRAK","updated_at":"2026-09-20T09:00:43.850181Z"}}}